TimeCST,TemperatureF,Dew PointF,Humidity,Sea Level PressureIn,VisibilityMPH,Wind Direction,Wind SpeedMPH,Gust SpeedMPH,PrecipitationIn,Events,Conditions,WindDirDegrees,DateUTC
12:15 AM,32.9,26.1,76,30.04,10.0,South,4.6,-,N/A,,Clear,170,2013-01-08 06:15:00
12:35 AM,32.4,25.7,76,30.03,10.0,SSE,5.8,-,N/A,,Clear,160,2013-01-08 06:35:00
12:55 AM,32.4,25.3,75,30.03,10.0,SSE,4.6,-,N/A,,Clear,160,2013-01-08 06:55:00
1:15 AM,32.0,25.9,78,30.03,10.0,South,5.8,-,N/A,,Clear,170,2013-01-08 07:15:00
1:35 AM,32.0,25.7,78,30.03,10.0,South,5.8,-,N/A,,Clear,180,2013-01-08 07:35:00
1:55 AM,31.6,25.2,77,30.03,10.0,South,4.6,-,N/A,,Clear,190,2013-01-08 07:55:00
2:15 AM,31.5,25.2,78,30.03,10.0,South,5.8,-,N/A,,Clear,190,2013-01-08 08:15:00
2:35 AM,32.0,25.3,76,30.03,10.0,South,6.9,-,N/A,,Clear,190,2013-01-08 08:35:00
2:55 AM,32.4,25.5,76,30.03,10.0,South,5.8,-,N/A,,Clear,190,2013-01-08 08:55:00
3:15 AM,32.0,25.3,76,30.03,10.0,South,4.6,-,N/A,,Clear,170,2013-01-08 09:15:00
3:35 AM,32.0,25.5,77,30.02,10.0,South,5.8,-,N/A,,Clear,170,2013-01-08 09:35:00
3:55 AM,31.6,25.5,78,30.01,10.0,South,5.8,-,N/A,,Clear,170,2013-01-08 09:55:00
4:15 AM,31.1,25.2,79,30.01,10.0,South,4.6,-,N/A,,Clear,170,2013-01-08 10:15:00
4:35 AM,31.5,25.2,78,30.00,10.0,South,4.6,-,N/A,,Clear,170,2013-01-08 10:35:00
4:55 AM,31.1,25.2,79,29.99,10.0,South,5.8,-,N/A,,Clear,180,2013-01-08 10:55:00
5:15 AM,31.8,25.7,78,30.00,10.0,South,4.6,-,N/A,,Clear,170,2013-01-08 11:15:00
5:35 AM,32.0,25.5,77,29.99,10.0,South,5.8,-,N/A,,Clear,190,2013-01-08 11:35:00
5:55 AM,31.1,24.8,77,29.99,10.0,South,4.6,-,N/A,,Clear,180,2013-01-08 11:55:00
6:15 AM,31.5,25.3,78,29.99,10.0,South,6.9,-,N/A,,Clear,170,2013-01-08 12:15:00
6:35 AM,31.5,25.5,79,30.00,10.0,South,6.9,-,N/A,,Clear,170,2013-01-08 12:35:00
6:55 AM,31.6,25.7,79,29.99,10.0,South,6.9,-,N/A,,Clear,170,2013-01-08 12:55:00
7:15 AM,32.0,26.1,79,30.00,10.0,South,8.1,-,N/A,,Clear,170,2013-01-08 13:15:00
7:35 AM,32.0,26.1,79,30.00,10.0,SSE,8.1,-,N/A,,Clear,160,2013-01-08 13:35:00
7:55 AM,32.0,26.2,79,30.00,10.0,SSE,8.1,-,N/A,,Clear,160,2013-01-08 13:55:00
8:15 AM,32.0,26.6,80,30.02,10.0,SSE,8.1,-,N/A,,Clear,160,2013-01-08 14:15:00
8:35 AM,32.4,26.6,79,30.02,10.0,SSE,8.1,-,N/A,,Clear,160,2013-01-08 14:35:00
8:55 AM,32.9,27.3,80,30.02,10.0,SSE,8.1,-,N/A,,Clear,160,2013-01-08 14:55:00
9:15 AM,33.8,27.7,78,30.02,10.0,SSE,8.1,-,N/A,,Clear,160,2013-01-08 15:15:00
9:35 AM,34.2,28.2,79,30.02,10.0,SSE,6.9,-,N/A,,Clear,160,2013-01-08 15:35:00
9:55 AM,35.4,28.9,77,30.01,10.0,SSE,6.9,-,N/A,,Clear,160,2013-01-08 15:55:00
10:15 AM,37.8,30.0,74,30.01,10.0,South,5.8,-,N/A,,Clear,170,2013-01-08 16:15:00
10:35 AM,39.6,30.4,70,30.00,10.0,South,9.2,-,N/A,,Clear,170,2013-01-08 16:35:00
10:55 AM,41.9,30.9,65,30.00,10.0,South,11.5,-,N/A,,Clear,180,2013-01-08 16:55:00
11:15 AM,42.4,30.4,62,29.98,10.0,South,11.5,-,N/A,,Clear,170,2013-01-08 17:15:00
11:35 AM,41.9,30.6,64,29.97,10.0,South,12.7,-,N/A,,Clear,180,2013-01-08 17:35:00
11:55 AM,42.1,30.6,64,29.96,10.0,South,8.1,-,N/A,,Clear,190,2013-01-08 17:55:00
12:15 PM,43.2,31.1,62,29.95,10.0,South,9.2,-,N/A,,Clear,180,2013-01-08 18:15:00
12:55 PM,46.4,32.0,57,29.93,10.0,South,12.7,19.6,N/A,,Clear,180,2013-01-08 18:55:00
1:15 PM,47.3,31.5,54,29.92,10.0,South,13.8,21.9,N/A,,Clear,180,2013-01-08 19:15:00
1:55 PM,49.3,31.6,51,29.90,10.0,South,17.3,-,N/A,,Clear,170,2013-01-08 19:55:00
2:15 PM,48.9,31.5,51,29.89,10.0,South,18.4,21.9,N/A,,Clear,170,2013-01-08 20:15:00
2:35 PM,49.1,31.6,51,29.89,10.0,SSE,16.1,20.7,N/A,,Clear,160,2013-01-08 20:35:00
2:55 PM,48.6,30.9,51,29.89,10.0,South,18.4,23.0,N/A,,Clear,170,2013-01-08 20:55:00
3:15 PM,48.6,30.6,50,29.89,10.0,South,18.4,25.3,N/A,,Clear,180,2013-01-08 21:15:00
3:35 PM,48.2,30.9,51,29.89,10.0,South,15.0,19.6,N/A,,Clear,180,2013-01-08 21:35:00
3:55 PM,47.5,30.2,51,29.90,10.0,South,16.1,20.7,N/A,,Clear,180,2013-01-08 21:55:00
4:15 PM,46.4,30.0,53,29.91,10.0,South,12.7,19.6,N/A,,Clear,190,2013-01-08 22:15:00
4:35 PM,46.0,29.8,53,29.93,10.0,South,10.4,-,N/A,,Clear,190,2013-01-08 22:35:00
4:55 PM,45.0,29.3,54,29.93,10.0,South,10.4,18.4,N/A,,Clear,190,2013-01-08 22:55:00
5:15 PM,43.7,29.3,57,29.94,10.0,SSW,9.2,-,N/A,,Clear,200,2013-01-08 23:15:00
5:35 PM,42.8,29.3,59,29.94,10.0,SSW,9.2,-,N/A,,Clear,200,2013-01-08 23:35:00
5:55 PM,42.8,29.7,60,29.95,10.0,South,8.1,-,N/A,,Clear,190,2013-01-08 23:55:00
6:15 PM,42.4,29.7,61,29.96,10.0,South,9.2,-,N/A,,Clear,190,2013-01-09 00:15:00
6:35 PM,41.4,29.7,63,29.96,10.0,South,8.1,-,N/A,,Clear,190,2013-01-09 00:35:00
6:55 PM,41.5,29.7,63,29.97,10.0,South,8.1,-,N/A,,Clear,190,2013-01-09 00:55:00
7:15 PM,41.9,29.8,62,29.96,10.0,South,9.2,-,N/A,,Clear,190,2013-01-09 01:15:00
7:35 PM,41.7,29.8,63,29.97,10.0,SSW,8.1,-,N/A,,Clear,200,2013-01-09 01:35:00
7:55 PM,41.9,30.0,63,29.98,10.0,SSW,9.2,-,N/A,,Clear,210,2013-01-09 01:55:00
8:15 PM,42.3,30.6,63,29.99,10.0,SW,10.4,-,N/A,,Clear,220,2013-01-09 02:15:00
8:35 PM,42.1,30.6,64,30.00,10.0,SW,8.1,-,N/A,,Clear,230,2013-01-09 02:35:00
8:55 PM,41.0,30.6,66,30.01,10.0,SW,9.2,-,N/A,,Clear,230,2013-01-09 02:55:00
9:15 PM,40.6,30.7,68,30.01,10.0,WSW,10.4,-,N/A,,Clear,240,2013-01-09 03:15:00
9:35 PM,40.8,31.1,68,30.01,10.0,WSW,11.5,17.3,N/A,,Clear,240,2013-01-09 03:35:00
9:55 PM,40.3,31.1,70,30.02,10.0,West,12.7,18.4,N/A,,Clear,260,2013-01-09 03:55:00
10:15 PM,39.4,31.1,72,30.04,10.0,West,11.5,-,N/A,,Clear,270,2013-01-09 04:15:00
10:35 PM,38.7,31.1,74,30.05,10.0,West,11.5,-,N/A,,Clear,270,2013-01-09 04:35:00
10:55 PM,38.3,30.7,74,30.06,10.0,West,11.5,-,N/A,,Clear,260,2013-01-09 04:55:00
11:15 PM,37.4,30.6,76,30.07,10.0,West,11.5,-,N/A,,Clear,270,2013-01-09 05:15:00
11:55 PM,37.4,30.2,75,30.09,10.0,West,8.1,16.1,N/A,,Clear,260,2013-01-09 05:55:00